H1 CPF 2 NER 2023 7 3 9 184 01 glonass143 H2 2007501 9143 46805 2023 7 3 0 0 0 2023 7 6 23 45 0 900 1 1 0 0 0 1 H9 10 0 60128 0.00000 0 -17265910.292 9863422.346 -15951344.935 10 0 60128 900.00000 0 -15950195.448 8217286.100 -18108003.799 10 0 60128 1800.00000 0 -14628286.146 6273033.585 -19912284.267 10 0 60128 2700.00000 0 -13357322.618 4063132.860 -21329100.509 10 0 60128 3600.00000 0 -12188674.753 1631213.758 -22330922.467 10 0 60128 4500.00000 0 -11165795.416 -969499.300 -22898310.056 10 0 60128 5400.00000 0 -10322427.563 -3678158.600 -23020288.176 10 0 60128 6300.00000 0 -9681240.170 -6428586.737 -22694555.680 10 0 60128 7200.00000 0 -9252949.661 -9151797.248 -21927524.665 10 0 60128 8100.00000 0 -9035962.873 -11778637.669 -20734189.791 10 0 60128 9000.00000 0 -9016555.564 -14242445.361 -19137830.531 10 0 60128 9900.00000 0 -9169577.831 -16481605.973 -17169552.504 10 0 60128 10800.00000 0 -9459655.644 -18441908.639 -14867677.030 10 0 60128 11700.00000 0 -9842836.816 -20078600.470 -12276991.015 10 0 60128 12600.00000 0 -10268611.065 -21358055.570 -9447871.930 10 0 60128 13500.00000 0 -10682218.116 -22258989.943 -6435305.132 10 0 60128 14400.00000 0 -11027145.740 -22773172.744 -3297812.834 10 0 60128 15300.00000 0 -11247711.700 -22905605.384 -96315.814 10 0 60128 16200.00000 0 -11291620.164 -22674162.340 3107049.769 10 0 60128 17100.00000 0 -11112384.345 -22108710.067 6250137.293 10 0 60128 18000.00000 0 -10671512.911 -21249742.127 9271992.779 10 0 60128 18900.00000 0 -9940367.749 -20146588.850 12114032.892 10 0 60128 19800.00000 0 -8901614.616 -18855277.341 14721175.222 10 0 60128 20700.00000 0 -7550205.316 -17436132.063 17042899.315 10 0 60128 21600.00000 0 -5893849.664 -15951216.665 19034218.511 10 0 60128 22500.00000 0 -3952956.701 -14461723.991 20656544.533 10 0 60128 23400.00000 0 -1760046.694 -13025423.077 21878428.887 10 0 60128 24300.00000 0 641342.805 -11694269.215 22676167.518 10 0 60128 25200.00000 0 3198212.691 -10512276.223 23034257.748 10 0 60128 26100.00000 0 5850056.708 -9513739.045 22945699.051 10 0 60128 27000.00000 0 8531134.990 -8721880.259 22412132.089 10 0 60128 27900.00000 0 11172973.998 -8147976.523 21443813.102 10 0 60128 28800.00000 0 13706990.597 -7791001.178 20059423.675 10 0 60128 29700.00000 0 16067132.597 -7637797.920 18285718.767 10 0 60128 30600.00000 0 18192427.084 -7663778.319 16157018.772 10 0 60128 31500.00000 0 20029331.126 -7834114.238 13714554.353 10 0 60128 32400.00000 0 21533787.294 -8105375.283 11005675.641 10 0 60128 33300.00000 0 22672898.201 -8427542.608 8082940.139 10 0 60128 34200.00000 0 23426149.797 -8746314.251 5003096.378 10 0 60128 35100.00000 0 23786131.837 -9005604.469 1825982.659 10 0 60128 36000.00000 0 23758724.850 -9150130.956 -1386637.760 10 0 60128 36900.00000 0 23362745.414 -9127979.695 -4572281.979 10 0 60128 37800.00000 0 22629064.458 -8893037.768 -7668969.238 10 0 60128 38700.00000 0 21599235.701 -8407189.799 -10616434.540 10 0 60128 39600.00000 0 20323692.263 -7642183.590 -13357309.514 10 0 60128 40500.00000 0 18859587.844 -6581084.458 -15838246.619 10 0 60128 41400.00000 0 17268373.963 -5219255.286 -18010964.006 10 0 60128 42300.00000 0 15613215.941 -3564819.474 -19833190.049 10 0 60128 43200.00000 0 13956356.903 -1638585.966 -21269488.825 10 0 60128 44100.00000 0 12356541.102 526561.659 -22291950.365 10 0 60128 45000.00000 0 10866605.040 2886787.314 -22880732.341 10 0 60128 45900.00000 0 9531337.459 5388889.540 -23024443.001 10 0 60128 46800.00000 0 8385697.614 7972287.899 -22720358.262 10 0 60128 47700.00000 0 7453465.895 10571326.101 -21974469.253 10 0 60128 48600.00000 0 6746382.410 13117796.236 -20801359.806 10 0 60128 49500.00000 0 6263808.482 15543579.196 -19223916.666 10 0 60128 50400.00000 0 5992923.912 17783291.618 -17272878.420 10 0 60128 51300.00000 0 5909450.289 19776829.415 -14986232.140 10 0 60128 52200.00000 0 5978868.495 21471702.374 -12408469.708 10 0 60128 53100.00000 0 6158077.799 22825062.973 -9589718.496 10 0 60128 54000.00000 0 6397425.407 23805345.483 -6584763.497 10 0 60128 54900.00000 0 6643019.788 24393447.720 -3451980.140 10 0 60128 55800.00000 0 6839229.289 24583406.993 -252198.825 10 0 60128 56700.00000 0 6931259.849 24382543.044 2952476.563 10 0 60128 57600.00000 0 6867702.453 23811063.067 6099872.990 10 0 60128 58500.00000 0 6602942.425 22901146.411 9128951.959 10 0 60128 59400.00000 0 6099328.615 21695548.243 11980989.223 10 0 60128 60300.00000 0 5329010.798 20245781.377 14600707.877 10 0 60128 61200.00000 0 4275367.641 18609952.877 16937343.236 10 0 60128 62100.00000 0 2933964.779 16850346.146 18945619.467 10 0 60128 63000.00000 0 1313002.177 15030849.433 20586619.804 10 0 60128 63900.00000 0 -566768.798 13214337.794 21828534.304 10 0 60128 64800.00000 0 -2672656.267 11460117.129 22647271.446 10 0 60128 65700.00000 0 -4961142.551 9821536.074 23026922.465 10 0 60128 66600.00000 0 -7379457.816 8343864.457 22960069.864 10 0 60128 67500.00000 0 -9867548.869 7062525.878 22447934.367 10 0 60128 68400.00000 0 -12360362.921 6001757.335 21500357.289 10 0 60128 69300.00000 0 -14790353.029 5173751.212 20135618.213 10 0 60128 70200.00000 0 -17090102.449 4578315.055 18380090.714 10 0 60128 71100.00000 0 -19194959.910 4203063.124 16267741.785 10 0 60128 72000.00000 0 -21045576.815 4024131.636 13839483.559 10 0 60128 72900.00000 0 -22590241.011 4007387.719 11142388.783 10 0 60128 73800.00000 0 -23786909.695 4110081.257 8228784.263 10 0 60128 74700.00000 0 -24604856.140 4282870.021 5155239.184 10 0 60128 75600.00000 0 -25025860.736 4472132.419 1981467.527 10 0 60128 76500.00000 0 -25044895.739 4622469.672 -1230834.126 10 0 60128 77400.00000 0 -24670274.325 4679290.862 -4419190.479 10 0 60128 78300.00000 0 -23923257.119 4591370.420 -7521569.031 10 0 60128 79200.00000 0 -22837132.452 4313268.515 -10477594.660 10 0 60128 80100.00000 0 -21455808.895 3807510.445 -13229732.620 10 0 60128 81000.00000 0 -19831979.494 3046431.300 -15724416.019 10 0 60128 81900.00000 0 -18024935.242 2013606.354 -17913095.006 10 0 60128 82800.00000 0 -16098120.194 704805.331 -19753186.617 10 0 60128 83700.00000 0 -14116531.467 -871571.064 -21208906.411 10 0 60128 84600.00000 0 -12144073.644 -2694591.913 -22251965.604 10 0 60128 85500.00000 0 -10240978.812 -4731430.942 -22862120.244 10 0 60129 0.00000 0 -8461400.493 -6938509.460 -23027562.038 10 0 60129 900.00000 0 -6851280.981 -9263101.399 -22745143.662 10 0 60129 1800.00000 0 -5446583.080 -11645330.830 -22020434.483 10 0 60129 2700.00000 0 -4271956.152 -14020482.844 -20867606.382 10 0 60129 3600.00000 0 -3339893.460 -16321528.696 -19309151.961 10 0 60129 4500.00000 0 -2650413.703 -18481761.267 -17375441.107 10 0 60129 5400.00000 0 -2191278.617 -20437430.915 -15104124.805 10 0 60129 6300.00000 0 -1938735.840 -22130272.008 -12539397.964 10 0 60129 7200.00000 0 -1858754.157 -23509814.977 -9731135.835 10 0 60129 8100.00000 0 -1908697.588 -24535387.746 -6733921.017 10 0 60129 9000.00000 0 -2039366.368 -25177723.410 -3605980.143 10 0 60129 9900.00000 0 -2197317.587 -25420107.562 -408051.237 10 0 60129 10800.00000 0 -2327366.545 -25259018.000 2797796.060 10 0 60129 11700.00000 0 -2375162.515 -24704230.829 5949364.275 10 0 60129 12600.00000 0 -2289729.598 -23778389.331 8985532.370 10 0 60129 13500.00000 0 -2025865.096 -22516054.387 11847437.175 10 0 60129 14400.00000 0 -1546293.961 -20962276.805 14479609.281 10 0 60129 15300.00000 0 -823488.309 -19170751.685 16831041.724 10 0 60129 16200.00000 0 158924.853 -17201632.117 18856171.361 10 0 60129 17100.00000 0 1405227.268 -15119093.350 20515754.673 10 0 60129 18000.00000 0 2907184.384 -12988748.660 21777621.808 10 0 60129 18900.00000 0 4644150.298 -10875023.938 22617295.103 10 0 60129 19800.00000 0 6583699.535 -8838599.461 23018460.789 10 0 60129 20700.00000 0 8682760.644 -6934024.379 22973285.227 10 0 60129 21600.00000 0 10889206.020 -5207602.149 22482569.789 10 0 60129 22500.00000 0 13143833.368 -3695633.993 21555741.214 10 0 60129 23400.00000 0 15382657.990 -2423092.673 20210677.204 10 0 60129 24300.00000 0 17539421.924 -1402781.234 18473369.848 10 0 60129 25200.00000 0 19548216.703 -635011.297 16377432.396 10 0 60129 26100.00000 0 21346111.265 -107814.088 13963457.846 10 0 60129 27000.00000 0 22875675.815 202324.876 11278240.660 10 0 60129 27900.00000 0 24087296.303 329238.419 8373875.715 10 0 60129 28800.00000 0 24941182.291 315409.455 5306751.259 10 0 60129 29700.00000 0 25408983.498 209932.442 2136455.013 10 0 60129 30600.00000 0 25474946.364 66191.065 -1075385.406 10 0 60129 31500.00000 0 25136561.161 -60649.005 -4266304.847 10 0 60129 32400.00000 0 24404671.605 -116225.268 -7374221.819 10 0 60129 33300.00000 0 23303041.635 -49530.877 -10338653.912 10 0 60129 34200.00000 0 21867397.128 184674.937 -13101902.850 10 0 60129 35100.00000 0 20143982.613 623701.962 -15610185.165 10 0 60129 36000.00000 0 18187693.654 1295102.655 -17814685.674 10 0 60129 36900.00000 0 16059863.585 2215262.934 -19672512.609 10 0 60129 37800.00000 0 13825797.766 3388470.903 -21147535.382 10 0 60129 38700.00000 0 11552159.062 4806503.942 -22211088.611 10 0 60129 39600.00000 0 9304314.274 6448752.504 -22842528.732 10 0 60129 40500.00000 0 7143752.591 8282876.267 -23029632.689 10 0 60129 41400.00000 0 5125683.753 10265965.745 -22768831.344 10 0 60129 42300.00000 0 3296915.799 12346161.180 -22065273.528 10 0 60129 43200.00000 0 1694100.175 14464661.310 -20932719.940 10 0 60129 44100.00000 0 342416.376 16558038.279 -19393269.356 10 0 60129 45000.00000 0 -745250.319 18560762.065 -17476922.838 10 0 60129 45900.00000 0 -1568605.288 20407829.075 -15220994.667 10 0 60129 46800.00000 0 -2139704.564 22037385.161 -12669381.681 10 0 60129 47700.00000 0 -2482190.276 23393233.522 -9871705.448 10 0 60129 48600.00000 0 -2630035.490 24427122.801 -6882344.140 10 0 60129 49500.00000 0 -2625852.907 25100719.909 -3759373.156 10 0 60129 50400.00000 0 -2518840.150 25387185.317 -563435.339 10 0 60129 51300.00000 0 -2362449.548 25272285.324 2643437.015 10 0 60129 52200.00000 0 -2211881.680 24754995.191 5799025.300 10 0 60129 53100.00000 0 -2121509.229 23847568.434 8842129.370 10 0 60129 54000.00000 0 -2142340.343 22575069.878 11713750.598 10 0 60129 54900.00000 0 -2319628.800 20974392.414 14358230.484 10 0 60129 55800.00000 0 -2690731.943 19092798.850 16724323.079 10 0 60129 56700.00000 0 -3283306.716 16986049.802 18766181.040 10 0 60129 57600.00000 0 -4113919.921 14716195.521 20444236.958 10 0 60129 58500.00000 0 -5187131.449 12349123.261 21725963.644 10 0 60129 59400.00000 0 -6495089.533 9951961.564 22586499.494 10 0 60129 60300.00000 0 -8017655.872 7590448.506 23009127.517 10 0 60129 61200.00000 0 -9723056.555 5326372.289 22985599.237 10 0 60129 62100.00000 0 -11569032.971 3215189.401 22516297.425 10 0 60129 63000.00000 0 -13504446.247 1303918.215 21610234.416 10 0 60129 63900.00000 0 -15471269.869 -370605.351 20284885.579 10 0 60129 64800.00000 0 -17406888.883 -1783038.376 18565860.450 10 0 60129 65700.00000 0 -19246611.099 -2920353.779 16486416.873 10 0 60129 66600.00000 0 -20926286.416 -3782141.551 14086826.509 10 0 60129 67500.00000 0 -22384925.456 -4380376.185 11413602.878 10 0 60129 68400.00000 0 -23567208.128 -4738660.294 8518605.910 10 0 60129 69300.00000 0 -24425776.782 -4890976.442 5458039.651 10 0 60129 70200.00000 0 -24923217.159 -4880000.042 2291362.145 10 0 60129 71100.00000 0 -25033643.072 -4755044.903 -919871.410 10 0 60129 72000.00000 0 -24743817.104 -4569728.800 -4113209.463 10 0 60129 72900.00000 0 -24053759.121 -4379458.641 -7226524.893 10 0 60129 73800.00000 0 -22976815.926 -4238842.641 -10199231.251 10 0 60129 74700.00000 0 -21539188.287 -4199140.284 -12973469.795 10 0 60129 75600.00000 0 -19778934.618 -4305859.306 -15495243.315 10 0 60129 76500.00000 0 -17744492.792 -4596602.709 -17715473.818 10 0 60129 77400.00000 0 -15492782.080 -5099258.158 -19590962.842 10 0 60129 78300.00000 0 -13086964.833 -5830607.408 -21085235.294 10 0 60129 79200.00000 0 -10593961.823 -6795415.527 -22169250.276 10 0 60129 80100.00000 0 -8081825.347 -7986039.137 -22821965.109 10 0 60129 81000.00000 0 -5617079.896 -9382570.901 -23030741.901 10 0 60129 81900.00000 0 -3262141.242 -10953514.727 -22791589.113 10 0 60129 82800.00000 0 -1072921.271 -12656963.735 -22109233.913 10 0 60129 83700.00000 0 903282.288 -14442231.872 -20997024.322 10 0 60129 84600.00000 0 2629524.207 -16251870.956 -19476663.497 10 0 60129 85500.00000 0 4080506.933 -18023988.745 -17577781.635 10 0 60130 0.00000 0 5243379.974 -19694770.847 -15337354.316 10 0 60130 900.00000 0 6118012.427 -21201101.728 -12798977.580 10 0 60130 1800.00000 0 6716727.619 -22483172.806 -10012017.098 10 0 60130 2700.00000 0 7063514.958 -23486971.402 -7030644.197 10 0 60130 3600.00000 0 7192752.354 -24166543.992 -3912780.613 10 0 60130 4500.00000 0 7147495.321 -24485939.953 -718971.616 10 0 60130 5400.00000 0 6977406.188 -24420754.322 2488790.187 10 0 60130 6300.00000 0 6736411.906 -23959205.151 5648267.331 10 0 60130 7200.00000 0 6480190.197 -23102700.550 8698182.742 10 0 60130 8100.00000 0 6263590.712 -21865871.956 11579404.402 10 0 60130 9000.00000 0 6138100.348 -20276072.404 14236086.640 10 0 60130 9900.00000 0 6149459.770 -18372360.867 16616746.259 10 0 60130 10800.00000 0 6335531.575 -16204015.013 18675253.241 10 0 60130 11700.00000 0 6724509.857 -13828634.040 20371717.541 10 0 60130 12600.00000 0 7333546.520 -11309910.134 21673255.596 10 0 60130 13500.00000 0 8167852.284 -8715160.455 22554622.517 10 0 60130 14400.00000 0 9220310.597 -6112721.226 22998698.429 10 0 60130 15300.00000 0 10471621.395 -3569311.054 22996820.046 10 0 60130 16200.00000 0 11890969.783 -1147471.711 22548951.313 10 0 60130 17100.00000 0 13437192.946 1096808.610 21663689.684 10 0 60130 18000.00000 0 15060397.963 3116191.952 20358107.536 10 0 60130 18900.00000 0 16703964.316 4873721.010 18657431.019 10 0 60130 19800.00000 0 18306848.767 6344112.115 16594561.605 10 0 60130 20700.00000 0 19806097.243 7514557.459 14209448.513 10 0 60130 21600.00000 0 21139459.327 8385003.536 11548323.075 10 0 60130 22500.00000 0 22247996.157 8967894.455 8662808.865 10 0 60130 23400.00000 0 23078572.165 9287391.170 5608924.151 10 0 60130 24300.00000 0 23586125.516 9378099.739 2445995.551 10 0 60130 25200.00000 0 23735620.891 9283362.575 -764496.090 10 0 60130 26100.00000 0 23503601.313 9053185.302 -3960114.869 10 0 60130 27000.00000 0 22879272.416 8741887.542 -7078690.178 10 0 60130 27900.00000 0 21865072.234 8405577.862 -10059533.686 10 0 60130 28800.00000 0 20476701.316 8099560.802 -12844628.327 10 0 60130 29700.00000 0 18742610.943 7875786.864 -15379765.199 10 0 60130 30600.00000 0 16702970.176 7780454.567 -17615605.459 10 0 60130 31500.00000 0 14408154.641 7851867.132 -19508645.823 10 0 60130 32400.00000 0 11916820.140 8118635.437 -21022068.471 10 0 60130 33300.00000 0 9293641.637 8598303.987 -22126458.699 10 0 60130 34200.00000 0 6606812.160 9296458.619 -22800376.338 10 0 60130 35100.00000 0 3925406.039 10206354.028 -23030770.161 10 0 60130 36000.00000 0 1316716.305 11309077.180 -22813227.564 10 0 60130 36900.00000 0 -1156323.033 12574239.964 -22152055.135 10 0 60130 37800.00000 0 -3437523.008 13961172.060 -21060188.998 10 0 60130 38700.00000 0 -5479535.473 15420563.942 -19558937.089 10 0 60130 39600.00000 0 -7245572.350 16896491.012 -17677558.724 10 0 60130 40500.00000 0 -8710678.082 18328733.783 -15452689.921 10 0 60130 41400.00000 0 -9862503.776 19655296.656 -12927625.861 10 0 60130 42300.00000 0 -10701552.448 20815019.397 -10151474.668 10 0 60130 43200.00000 0 -11240887.004 21750171.602 -7178199.160 10 0 60130 44100.00000 0 -11505315.098 22408921.116 -4065565.389 10 0 60130 45000.00000 0 -11530086.898 22747572.669 -874018.709 10 0 60130 45900.00000 0 -11359162.199 22732482.763 2334490.589 10 0 60130 46800.00000 0 -11043121.217 22341570.403 5497709.047 10 0 60130 47700.00000 0 -10636808.242 21565360.370 8554285.726 10 0 60130 48600.00000 0 -10196808.247 20407515.301 11444958.404 10 0 60130 49500.00000 0 -9778863.335 18884834.310 14113697.495 10 0 60130 50400.00000 0 -9435338.109 17026718.063 16508785.803 10 0 60130 51300.00000 0 -9212840.705 14874122.447 18583813.785 10 0 60130 52200.00000 0 -9150099.481 12478043.968 20298571.751 10 0 60130 53100.00000 0 -9276184.510 9897599.371 21619822.502 10 0 60130 54000.00000 0 -9609148.452 7197778.443 22521940.266 10 0 60130 54900.00000 0 -10155143.988 4446962.282 22987404.282 10 0 60130 55800.00000 0 -10908055.155 1714308.863 23007137.973 10 0 60130 56700.00000 0 -11849658.632 -932886.964 22580687.418 10 0 60130 57600.00000 0 -12950309.171 -3431750.845 21716235.579 10 0 60130 58500.00000 0 -14170121.545 -5726198.749 20430451.596 10 0 60130 59400.00000 0 -15460600.796 -7769021.943 18748177.376 10 0 60130 60300.00000 0 -16766653.723 -9523601.334 16701956.563 10 0 60130 61200.00000 0 -18028898.425 -10965180.460 14331413.934 10 0 60130 62100.00000 0 -19186175.863 -12081644.520 11682496.159 10 0 60130 63000.00000 0 -20178158.512 -12873773.219 8806587.606 10 0 60130 63900.00000 0 -20947946.489 -13354957.054 5759517.625 10 0 60130 64800.00000 0 -21444541.610 -13550389.188 2600478.072 10 0 60130 65700.00000 0 -21625094.416 -13495767.192 -609127.993 10 0 60130 66600.00000 0 -21456828.376 -13235559.768 -3806883.799 10 0 60130 67500.00000 0 -20918558.825 -12820912.189 -6930578.710 10 0 60130 68400.00000 0 -20001741.198 -12307279.699 -9919425.904 10 0 60130 69300.00000 0 -18711002.948 -11751889.855 -12715253.242 10 0 60130 70200.00000 0 -17064135.461 -11211142.162 -15263643.194 10 0 60130 71100.00000 0 -15091545.211 -10738056.031 -17514998.843 10 0 60130 72000.00000 0 -12835186.364 -10379875.995 -19425514.466 10 0 60130 72900.00000 0 -10347018.993 -10175936.298 -20958031.435 10 0 60130 73800.00000 0 -7687057.068 -10155875.751 -22082762.577 10 0 60130 74700.00000 0 -4921087.611 -10338278.722 -22777870.975 10 0 60130 75600.00000 0 -2118156.081 -10729799.905 -23029892.181 10 0 60130 76500.00000 0 652077.380 -11324809.839 -22833992.046 10 0 60130 77400.00000 0 3322000.907 -12105576.086 -22194055.578 10 0 60130 78300.00000 0 5828622.689 -13042972.311 -21122605.553 10 0 60130 79200.00000 0 8115945.136 -14097685.159 -19640552.872 10 0 60130 80100.00000 0 10137043.464 -15221867.954 -17776783.862 10 0 60130 81000.00000 0 11855763.253 -16361171.321 -15567592.830 10 0 60130 81900.00000 0 13247967.567 -17457065.092 -13055971.124 10 0 60130 82800.00000 0 14302283.147 -18449353.525 -10290766.766 10 0 60130 83700.00000 0 15020316.218 -19278777.780 -7325731.165 10 0 60130 84600.00000 0 15416330.679 -19889595.966 -4218471.701 10 0 60130 85500.00000 0 15516403.981 -20232031.982 -1029330.763 10 0 60131 0.00000 0 15357097.854 -20264490.054 2179786.409 10 0 60131 900.00000 0 14983701.186 -19955441.646 5346613.873 10 0 60131 1800.00000 0 14448120.517 -19284905.396 8409729.280 10 0 60131 2700.00000 0 13806507.625 -18245457.870 11309742.711 10 0 60131 3600.00000 0 13116724.918 -16842732.457 13990442.849 10 0 60131 4500.00000 0 12435755.574 -15095385.318 16399880.320 10 0 60131 5400.00000 0 11817167.491 -13034529.407 18491367.483 10 0 60131 6300.00000 0 11308737.458 -10702659.567 20224376.004 10 0 60131 7200.00000 0 10950335.098 -8152112.758 21565315.619 10 0 60131 8100.00000 0 10772155.073 -5443126.476 22488179.818 10 0 60131 9000.00000 0 10793371.467 -2641574.856 22975046.686 10 0 60131 9900.00000 0 11021270.673 183524.870 23016425.706 10 0 60131 10800.00000 0 11450899.290 2962633.544 22611444.113 10 0 60131 11700.00000 0 12065242.224 5628331.598 21767869.110 10 0 60131 12600.00000 0 12835924.194 8117872.665 20501965.118 10 0 60131 13500.00000 0 13724406.165 10375544.489 18838188.155 10 0 60131 14400.00000 0 14683627.515 12354740.022 16808722.269 10 0 60131 15300.00000 0 15660026.003 14019653.241 14452865.952 10 0 60131 16200.00000 0 16595851.503 15346529.504 11816279.313 10 0 60131 17100.00000 0 17431676.807 16324418.535 8950105.572 10 0 60131 18000.00000 0 18108999.988 16955398.660 5909983.180 10 0 60131 18900.00000 0 18572828.474 17254263.014 2754967.230 10 0 60131 19800.00000 0 18774135.267 17247681.029 -453619.009 10 0 60131 20700.00000 0 18672082.633 16972870.734 -3653379.875 10 0 60131 21600.00000 0 18235918.157 16475838.238 -6782066.610 10 0 60131 22500.00000 0 17446461.633 15809259.266 -9778795.699 10 0 60131 23400.00000 0 16297118.518 15030092.974 -12585241.581 10 0 60131 24300.00000 0 14794375.717 14197029.744 -15146779.590 10 0 60131 25200.00000 0 12957757.438 13367881.720 -17413556.066 10 0 60131 26100.00000 0 10819241.808 12597027.277 -19341464.054 10 0 60131 27000.00000 0 8422161.798 11933018.093 -20893005.208 10 0 60131 27900.00000 0 5819635.805 11416450.488 -22038020.915 10 0 60131 28800.00000 0 3072593.057 11078191.190 -22754278.451 10 0 60131 29700.00000 0 247475.962 10938032.471 -23027901.008 10 0 60131 30600.00000 0 -2586285.081 11003833.219 -22853633.615 10 0 60131 31500.00000 0 -5358919.449 11271181.844 -22234940.222 10 0 60131 32400.00000 0 -8002976.780 11723594.732 -21183930.516 10 0 60131 33300.00000 0 -10455889.991 12333241.386 -19721118.296 10 0 60131 34200.00000 0 -12662334.775 13062165.113 -17875016.491 10 0 60131 35100.00000 0 -14576288.268 13863947.287 -15681576.942 10 0 60131 36000.00000 0 -16162702.203 14685744.551 -13183486.100 10 0 60131 36900.00000 0 -17398722.034 15470612.622 -10429330.526 10 0 60131 37800.00000 0 -18274402.620 16160018.348 -7472648.638 10 0 60131 38700.00000 0 -18792892.137 16696433.779 -4370887.335 10 0 60131 39600.00000 0 -18970078.152 17025902.580 -1184284.059 10 0 60131 40500.00000 0 -18833712.374 17100470.383 2025303.752 10 0 60131 41400.00000 0 -18422052.317 16880376.489 5195598.866 10 0 60131 42300.00000 0 -17782078.336 16335914.426 8265110.627 10 0 60131 43200.00000 0 -16967362.029 15448882.929 11174324.091 10 0 60131 44100.00000 0 -16035676.448 14213566.105 13866848.996 10 0 60131 45000.00000 0 -15046448.989 12637201.342 16290506.624 10 0 60131 45900.00000 0 -14058164.169 10739914.865 18398334.032 10 0 60131 46800.00000 0 -13125825.138 8554126.960 20149486.921 10 0 60131 47700.00000 0 -12298580.143 6123450.802 21510024.421 10 0 60131 48600.00000 0 -11617612.948 3501129.689 22453561.448 10 0 60131 49500.00000 0 -11114385.094 748076.346 22961776.714 10 0 60131 50400.00000 0 -10809303.199 -2069405.648 23024767.109 10 0 60131 51300.00000 0 -10710866.843 -4882125.299 22641241.881 10 0 60131 52200.00000 0 -10815332.673 -7620630.180 21818552.806 10 0 60131 53100.00000 0 -11106909.011 -10217847.469 20572559.391 10 0 60131 54000.00000 0 -11558473.306 -12611631.688 18927331.030 10 0 60131 54900.00000 0 -12132782.920 -14747114.422 16914690.932 10 0 60131 55800.00000 0 -12784129.175 -16578758.985 14573609.594 10 0 60131 56700.00000 0 -13460365.800 -18072034.992 11949458.437 10 0 60131 57600.00000 0 -14105226.928 -19204643.169 9093137.072 10 0 60131 58500.00000 0 -14660837.262 -19967239.222 6060090.321 10 0 60131 59400.00000 0 -15070308.414 -20363626.412 2909233.589 10 0 60131 60300.00000 0 -15280311.344 -20410408.661 -298192.715 10 0 60131 61200.00000 0 -15243515.364 -20136118.792 -3499817.195 10 0 60131 62100.00000 0 -14920789.446 -19579858.780 -6633356.189 10 0 60131 63000.00000 0 -14283071.373 -18789509.652 -9637832.720 10 0 60131 63900.00000 0 -13312824.194 -17819587.137 -12454771.001 10 0 60131 64800.00000 0 -12005016.898 -16728834.231 -15029342.322 10 0 60131 65700.00000 0 -10367586.396 -15577653.101 -17311439.173 10 0 60131 66600.00000 0 -8421359.982 -14425485.504 -19256655.963 10 0 60131 67500.00000 0 -6199440.324 -13328252.960 -20827156.812 10 0 60131 68400.00000 0 -3746077.787 -12335965.106 -21992413.354 10 0 60131 69300.00000 0 -1115076.600 -11490597.387 -22729798.179 10 0 60131 70200.00000 0 1632199.111 -10824327.448 -23025022.642 10 0 60131 71100.00000 0 4429136.626 -10358204.243 -22872410.898 10 0 60131 72000.00000 0 7206407.265 -10101305.387 -22275005.246 10 0 60131 72900.00000 0 9894615.213 -10050417.474 -21244501.210 10 0 60131 73800.00000 0 12426952.696 -10190251.988 -19801014.001 10 0 60131 74700.00000 0 14741751.442 -10494186.802 -17972681.284 10 0 60131 75600.00000 0 16784824.860 -10925501.071 -15795110.221 10 0 60131 76500.00000 0 18511504.185 -11439050.639 -13310679.819 10 0 60131 77400.00000 0 19888284.651 -11983312.473 -10567712.316 10 0 60131 78300.00000 0 20894014.167 -12502711.214 -7619529.989 10 0 60131 79200.00000 0 21520576.147 -12940129.061 -4523415.878 10 0 60131 80100.00000 0 21773039.316 -13239492.574 -1339498.937 10 0 60131 81000.00000 0 21669269.731 -13348326.832 1870414.484 10 0 60131 81900.00000 0 21239022.663 -13220168.890 5044039.940 10 0 60131 82800.00000 0 20522553.805 -12816738.474 8119821.474 10 0 60131 83700.00000 0 19568809.198 -12109774.244 11038122.089 10 0 60131 84600.00000 0 18433270.723 -11082458.066 13742375.143 10 0 60131 85500.00000 0 17175548.140 -9730367.077 16180174.663 99